Erie, PA

5:28 PM EST on November 14, 2019 (GMT -0500)
Erie International

Weather History for KERI - September, 2019

Change the Weather History Date:

Saturday, September 28, 2019

  Actual Average Record
Temperature  
Mean Temperature 72 °F 59 °F  
Max Temperature 78 °F 67 °F 89 °F (1959)
Min Temperature 66 °F 51 °F 34 °F (1957)
Degree Days  
Heating Degree Days 0 7  
Month to date heating degree days 11 90  
Since 1 July heating degree days 12 108  
Cooling Degree Days 7 1  
Month to date cooling degree days 131 68  
Year to date cooling degree days 821 626  
Growing Degree Days 22 (Base 50)    
Moisture  
Dew Point 62 °F    
Average Humidity 75    
Maximum Humidity 90    
Minimum Humidity 44    
Precipitation  
Precipitation 0.04 in 0.17 in 1.68 in (1962)
Month to date precipitation 3.31 4.28  
Year to date precipitation 29.63 30.11  
Snow  
Snow 0.00 in 0.00 in - ()
Month to date snowfall 0.0 0.0  
Since 1 July snowfall 0.0 0.0  
Since 1 September snowfall 0.0 0.0  
Snow Depth 0.00 in    
Sea Level Pressure  
Sea Level Pressure 30.06 in    
Wind  
Wind Speed 9 mph ()    
Max Wind Speed 22 mph    
Max Gust Speed 30 mph    
Visibility 9.9 miles    
Events Rain    
T = Trace of Precipitation, MM = Missing Value Source: Averaged Metar Reports

Daily Weather History Graph

Daily Weather History Graph

Search for Another Location

Airport or City:

Astronomy

Sep. 28, 2019 Rise Set
Actual Time 7:14 AM EDT 7:07 PM EDT
Civil Twilight 6:46 AM EDT 7:35 PM EDT
Nautical Twilight 6:13 AM EDT 8:08 PM EDT
Astronomical Twilight 5:40 AM EDT 8:41 PM EDT
Moon 6:47 AM EDT (9/28) 7:33 PM EDT (9/28)
Length of Visible Light 12h 49m
Length of Day
11h 53m
Waning Crescent, 0% of the Moon is Illuminated
Sep 28
Waning Crescent
Sep 28
New
Oct 5
First Quarter
Oct 13
Full
Oct 21
Last Quarter

Hourly Weather History & Observations

Time (EDT) Temp. Dew Point Humidity Pressure Visibility Wind Dir Wind Speed Gust Speed Precip Events Conditions
1:51 AM 73.0 °F 51.1 °F 46% 29.85 in 10.0 mi South 15.0 mph 24.2 mph 0.00 in Rain Light Rain
2:51 AM 73.9 °F 52.0 °F 46% 29.86 in 10.0 mi South 16.1 mph - 0.00 in Rain Light Rain
3:51 AM 75.0 °F 53.1 °F 46% 29.84 in 10.0 mi South 19.6 mph - 0.00 in Rain Light Rain
4:24 AM 73.9 °F 55.0 °F 52% 29.93 in 10.0 mi West 18.4 mph 29.9 mph 0.00 in Rain Light Rain
4:51 AM 70.0 °F 63.0 °F 78% 29.95 in 7.0 mi NW 8.1 mph - 0.02 in Rain Light Rain
5:51 AM 66.9 °F 64.0 °F 90% 29.94 in 10.0 mi SE 4.6 mph - 0.02 in   Mostly Cloudy
6:51 AM 66.9 °F 63.0 °F 87% 29.93 in 10.0 mi South 4.6 mph - N/A   Clear
7:51 AM 66.0 °F 62.1 °F 87% 29.95 in 10.0 mi South 4.6 mph - N/A   Clear
8:51 AM 68.0 °F 61.0 °F 78% 29.95 in 10.0 mi South 10.4 mph - 0.00 in Rain Light Rain
9:51 AM 72.0 °F 62.1 °F 71% 29.99 in 10.0 mi SSW 8.1 mph - 0.00 in   Partly Cloudy
10:51 AM 77.0 °F 62.1 °F 60% 30.01 in 10.0 mi Variable 6.9 mph - N/A   Clear
11:51 AM 75.9 °F 64.0 °F 67% 30.03 in 10.0 mi West 5.8 mph - N/A   Clear
12:51 PM 75.0 °F 63.0 °F 66% 30.03 in 10.0 mi WSW 8.1 mph - N/A   Clear
1:51 PM 73.9 °F 64.9 °F 73% 30.03 in 10.0 mi WSW 9.2 mph - N/A   Clear
2:51 PM 75.0 °F 62.1 °F 64% 30.04 in 10.0 mi WSW 9.2 mph - 0.00 in Rain Light Rain
3:51 PM 73.9 °F 63.0 °F 68% 30.05 in 10.0 mi WSW 8.1 mph 18.4 mph 0.00 in   Mostly Cloudy
4:51 PM 72.0 °F 64.9 °F 78% 30.10 in 10.0 mi West 9.2 mph - 0.00 in   Overcast
5:39 PM 71.1 °F 64.0 °F 78% 30.12 in 10.0 mi WSW 6.9 mph - N/A   Overcast
5:51 PM 71.1 °F 64.9 °F 81% 30.12 in 10.0 mi Variable 5.8 mph - N/A   Overcast
6:03 PM 71.1 °F 64.9 °F 81% 30.13 in 10.0 mi WSW 6.9 mph - 0.00 in Rain Light Rain
6:12 PM 70.0 °F 64.9 °F 84% 30.13 in 10.0 mi WSW 5.8 mph - 0.00 in Rain Light Rain
6:40 PM 70.0 °F 66.0 °F 87% 30.13 in 10.0 mi WNW 6.9 mph - 0.00 in   Overcast
6:47 PM 69.8 °F 66.2 °F 88% 30.14 in 10.0 mi NW 8.1 mph - 0.00 in   Overcast
6:51 PM 70.0 °F 64.9 °F 84% 30.13 in 10.0 mi NW 6.9 mph - 0.00 in   Overcast
7:07 PM 69.1 °F 64.9 °F 87% 30.14 in 8.0 mi NW 5.8 mph - N/A   Overcast
7:35 PM 69.1 °F 64.0 °F 84% 30.15 in 10.0 mi NW 6.9 mph - N/A   Overcast
7:51 PM 69.1 °F 64.0 °F 84% 30.15 in 10.0 mi NW 4.6 mph - N/A   Overcast
8:15 PM 69.1 °F 64.0 °F 84% 30.16 in 10.0 mi NW 3.5 mph - N/A   Overcast
8:36 PM 69.1 °F 63.0 °F 81% 30.17 in 10.0 mi NNE 9.2 mph - N/A   Overcast
8:51 PM 68.0 °F 61.0 °F 78% 30.17 in 10.0 mi North 9.2 mph - N/A   Overcast
9:10 PM 68.0 °F 60.1 °F 76% 30.19 in 10.0 mi North 9.2 mph - N/A   Overcast
9:51 PM 68.0 °F 60.1 °F 76% 30.19 in 10.0 mi North 11.5 mph - N/A   Overcast
10:51 PM 68.0 °F 59.0 °F 73% 30.21 in 10.0 mi NNE 11.5 mph - N/A   Overcast
11:51 PM 66.9 °F 60.1 °F 79% 30.22 in 10.0 mi NE 9.2 mph - N/A   Overcast